Regional Weather Roundup
Issued by NWS

Home | Current Version | Previous Version | Text Only | Print | Product List | Glossary On
Versions: 1 2 3 4 5 6 7 8 9 10 11 12 13 14 15 16 17 18 19 20 21 22 23 24 25 26 27 28 29 30 31 32 33 34 35 36 37 38 39 40 41 42 43 44 45 46 47 48 49 50
000
ASUS43 KOAX 050310
RWRNE

WEATHER ROUNDUP FOR NEBRASKA
NATIONAL WEATHER SERVICE OMAHA NE
1000 PM CDT TUE AUG 04 2015

NOTES: SATELLITE DATA IS BEING USED TO AUGMENT CLOUD COVER ABOVE
       12000 FEET.
       "FAIR" INDICATES FEW OR NO CLOUDS BELOW 12,000 FEET WITH NO
       SIGNIFICANT WEATHER AND/OR OBSTRUCTIONS TO VISIBILITY.

  * THESE STATIONS DO NOT REPORT WEATHER SUCH AS RAIN...SNOW OR FOG.

NEZ001>004-019>022-054>056-050400-
NEBRASKA PANHANDLE

CITY           SKY/WX    TMP DP  RH WIND       PRES   REMARKS
SCOTTSBLUFF    MOCLDY    66  64  93 E6        30.04R
ALLIANCE       PTCLDY    64  61  90 E5        30.03R
CHADRON        MOCLDY    68  60  75 S3        30.00R
KIMBALL        PTCLDY    64  55  75 SW7       30.08R
SIDNEY         PTCLDY    63  58  83 SW8       30.06R
$$

NEZ057>060-069>072-079>082-050400-
SOUTHWEST NEBRASKA

CITY           SKY/WX    TMP DP  RH WIND       PRES   REMARKS
NORTH PLATTE   PTCLDY    63  61  93 SW3       30.01R
IMPERIAL       PTCLDY    65  62  90 E5        30.02R
LEXINGTON      MOCLDY    64  63  96 NW5       29.99R
MCCOOK         PTCLDY    64  62  93 NE3       29.99R
OGALLALA       PTCLDY    65  63  91 NE3       30.02R
$$

NEZ005>010-023>029-035>040-094-050400-
NORTH CENTRAL NEBRASKA

CITY           SKY/WX    TMP DP  RH WIND       PRES   REMARKS
AINSWORTH      CLOUDY    69  66  92 SE9       30.01R
BROKEN BOW     CLOUDY    67  64  90 SE7       30.00R
O`NEILL        CLOUDY    72  67  84 SE8       30.00R
ORD            CLOUDY    65  63  93 CALM      29.98R
THEDFORD       MOCLDY    71  66  84 SE9       30.02R
$$

NEZ041-046>049-061>064-073>077-083>087-050400-
SOUTH CENTRAL NEBRASKA

CITY           SKY/WX    TMP DP  RH WIND       PRES   REMARKS
GRAND ISLAND   CLOUDY    66  64  93 CALM      29.99R
AURORA         CLOUDY    66  66  99 NE3       29.98S
HASTINGS       LGT RAIN  66  64  93 SE3       29.98R
HEBRON         LGT RAIN  70  66  87 CALM      29.94R
HOLDREGE       CLOUDY    63  62  96 CALM      29.97R
KEARNEY *      CLOUDY    64  61  88 NE7G16    29.99R
YORK           CLOUDY    68  66  94 CALM      29.98R
$$

NEZ011>018-030>034-042>045-050400-
NORTHEAST NEBRASKA

CITY           SKY/WX    TMP DP  RH WIND       PRES   REMARKS
NORFOLK        CLOUDY    71  64  78 E8        29.99R
ALBION         CLOUDY    69  64  84 E3        29.99R
BLAIR          CLOUDY    69  65  84 E3        29.97F
COLUMBUS *     CLOUDY    72  64  78 E6        29.96S
FREMONT        CLOUDY    72  66  82 E6        29.97F
TEKAMAH        CLOUDY    71  66  84 SE3       29.97R
WAYNE          CLOUDY    71  64  78 E6        29.99S
$$

NEZ050>053-065>068-078-088>093-050400-
SOUTHEAST NEBRASKA

CITY           SKY/WX    TMP DP  RH WIND       PRES   REMARKS
LINCOLN        CLOUDY    75  70  84 E8        29.96S
OMAHA EPPLEY   RAIN      72  70  93 SE10      29.97R FOG
BEATRICE       CLOUDY    73  69  89 SE7       29.95F
FALLS CITY     CLOUDY    70  68  93 W3        29.95S
NEBRASKA CITY  CLOUDY    72  68  87 S5        29.97R
PLATTSMOUTH    LGT RAIN  71  69  92 E7        29.97F
$$

NEZ044-045-051>053-067-050400-
OMAHA AREA

CITY           SKY/WX    TMP DP  RH WIND       PRES   REMARKS
OMAHA EPPLEY   RAIN      72  70  93 SE10      29.97R FOG
BLAIR          CLOUDY    69  65  84 E3        29.97F
FREMONT        CLOUDY    72  66  82 E6        29.97F
MILLARD        CLOUDY    71  67  88 SE5       29.96S
OFFUTT AFB     CLOUDY    72  69  88 E7        29.96F
PLATTSMOUTH    LGT RAIN  71  69  92 E7        29.97F
WAHOO          FAIR      71  69  93 E5        29.96R
$$


USA.gov is the U.S. government's official web portal to all federal, state and local government web resources and services.